QPF
0.00 0.00 0.00 0.00 0.00 0.00 0.00 0.00 0.00 0.00 0.00 0.00 0.00 0.00 0.00 0.00 0.00 0.00 0.00 0.00 0.00 0.00 0.01 0.01 0.00 0.00 0.00 0.00 0.00 0.00 0.01 0.02 0.03 0.05 0.07 0.08 0.09 0.08 0.07 0.07 0.07 0.06 0.07 0.08
0.00 0.00 0.00 0.01 0.00 0.00 0.00 0.00 0.00 0.00 0.00 0.00 0.00 0.00 0.00 0.00 0.00 0.00 0.00 0.00 0.00 0.00 0.00 0.00 0.00 0.00 0.00 0.00 0.00 0.00 0.01 0.02 0.02 0.03 0.04 0.06 0.06 0.06 0.07 0.06 0.07 0.04 0.04 0.05
0.00 0.00 0.00 0.00 0.00 0.00 0.00 0.00 0.00 0.00 0.00 0.00 0.00 0.00 0.00 0.00 0.00 0.00 0.00 0.00 0.00 0.00 0.00 0.00 0.00 0.00 0.00 0.00 0.00 0.01 0.01 0.02 0.03 0.03 0.03 0.04 0.05 0.05 0.06 0.05 0.04 0.03 0.02 0.02
0.00 0.00 0.00 0.00 0.00 0.00 0.00 0.00 0.00 0.00 0.00 0.00 0.00 0.01 0.01 0.00 0.01 0.00 0.00 0.00 0.00 0.00 0.00 0.00 0.00 0.00 0.00 0.00 0.00 0.01 0.01 0.02 0.02 0.02 0.03 0.03 0.05 0.05 0.05 0.04 0.04 0.02 0.01 0.01
0.00 0.00 0.00 0.00 0.00 0.00 0.00 0.00 0.00 0.00 0.00 0.00 0.00 0.00 0.01 0.01 0.00 0.00 0.00 0.00 0.00 0.00 0.00 0.00 0.01 0.01 0.00 0.00 0.00 0.01 0.01 0.02 0.01 0.02 0.02 0.03 0.05 0.04 0.03 0.03 0.03 0.03 0.02 0.02
0.00 0.00 0.00 0.00 0.00 0.00 0.00 0.00 0.00 0.00 0.00 0.00 0.00 0.00 0.02 0.03 0.01 0.00 0.00 0.00 0.00 0.00 0.00 0.00 0.00 0.00 0.00 0.00 0.00 0.00 0.01 0.01 0.01 0.01 0.01 0.02 0.04 0.04 0.03 0.03 0.03 0.02 0.03 0.03
0.00 0.00 0.00 0.00 0.00 0.00 0.00 0.00 0.02 0.01 0.01 0.00 0.00 0.00 0.00 0.00 0.00 0.00 0.00 0.00 0.00 0.00 0.00 0.00 0.00 0.00 0.00 0.00 0.00 0.00 0.00 0.01 0.01 0.01 0.01 0.02 0.03 0.03 0.03 0.02 0.02 0.02 0.02 0.02
0.00 0.00 0.00 0.00 0.00 0.00 0.00 0.00 0.02 0.02 0.01 0.00 0.01 0.00 0.01 0.00 0.00 0.00 0.00 0.00 0.00 0.00 0.00 0.00 0.00 0.00 0.00 0.00 0.00 0.00 0.01 0.01 0.01 0.01 0.01 0.02 0.02 0.02 0.02 0.02 0.02 0.02 0.02 0.03
0.00 0.00 0.00 0.00 0.00 0.00 0.00 0.00 0.00 0.01 0.01 0.00 0.00 0.00 0.00 0.00 0.00 0.00 0.00 0.00 0.00 0.00 0.00 0.00 0.00 0.00 0.00 0.00 0.00 0.00 0.01 0.02 0.03 0.03 0.03 0.03 0.02 0.02 0.02 0.02 0.01 0.01 0.02 0.02
0.00 0.00 0.00 0.00 0.00 0.00 0.00 0.00 0.00 0.00 0.00 0.00 0.01 0.02 0.02 0.00 0.00 0.00 0.00 0.00 0.00 0.00 0.00 0.00 0.00 0.00 0.00 0.00 0.00 0.00 0.00 0.01 0.02 0.03 0.03 0.03 0.03 0.02 0.02 0.01 0.01 0.02 0.02 0.02
0.00 0.00 0.00 0.00 0.00 0.00 0.00 0.00 0.00 0.00 0.00 0.00 0.00 0.01 0.01 0.00 0.00 0.00 0.00 0.00 0.00 0.00 0.00 0.00 0.00 0.00 0.01 0.01 0.00 0.00 0.00 0.00 0.01 0.01 0.02 0.03 0.03 0.03 0.02 0.02 0.01 0.01 0.02 0.02
0.00 0.00 0.00 0.00 0.00 0.00 0.00 0.00 0.00 0.00 0.00 0.00 0.01 0.01 0.00 0.00 0.00 0.00 0.00 0.00 0.00 0.00 0.00 0.00 0.00 0.01 0.03 0.08 0.04 0.01 0.01 0.01 0.01 0.01 0.01 0.02 0.03 0.02 0.02 0.02 0.02 0.02 0.02 0.03
0.00 0.00 0.00 0.00 0.00 0.00 0.00 0.00 0.00 0.00 0.00 0.00 0.01 0.01 0.00 0.00 0.00 0.00 0.00 0.00 0.00 0.00 0.00 0.01 0.01 0.01 0.02 0.02 0.02 0.01 0.00 0.01 0.01 0.01 0.01 0.01 0.02 0.02 0.02 0.02 0.03 0.04 0.04 0.04
0.00 0.00 0.00 0.00 0.00 0.00 0.00 0.00 0.00 0.00 0.00 0.00 0.00 0.01 0.00 0.00 0.00 0.00 0.00 0.00 0.00 0.00 0.00 0.00 0.01 0.02 0.02 0.03 0.02 0.01 0.00 0.00 0.01 0.01 0.01 0.02 0.02 0.03 0.03 0.03 0.04 0.04 0.04 0.05
0.00 0.00 0.00 0.00 0.00 0.00 0.00 0.00 0.00 0.00 0.00 0.00 0.00 0.01 0.01 0.00 0.00 0.00 0.00 0.00 0.00 0.00 0.00 0.01 0.01 0.02 0.02 0.02 0.02 0.02 0.02 0.01 0.02 0.02 0.03 0.04 0.04 0.03 0.03 0.03 0.03 0.03 0.03 0.03
0.00 0.00 0.00 0.00 0.00 0.00 0.00 0.00 0.00 0.00 0.00 0.00 0.00 0.00 0.00 0.01 0.00 0.00 0.00 0.00 0.00 0.00 0.01 0.01 0.01 0.01 0.01 0.01 0.02 0.03 0.03 0.03 0.03 0.03 0.04 0.05 0.04 0.04 0.03 0.04 0.03 0.02 0.02 0.02
0.00 0.00 0.00 0.00 0.00 0.00 0.00 0.00 0.00 0.00 0.00 0.00 0.00 0.00 0.00 0.00 0.00 0.00 0.00 0.00 0.01 0.01 0.01 0.01 0.00 0.00 0.00 0.00 0.01 0.02 0.04 0.05 0.06 0.05 0.05 0.05 0.03 0.03 0.03 0.03 0.03 0.02 0.03 0.04
0.01 0.01 0.00 0.00 0.00 0.00 0.00 0.00 0.00 0.00 0.00 0.00 0.00 0.00 0.00 0.00 0.00 0.00 0.00 0.00 0.00 0.00 0.00 0.00 0.00 0.00 0.01 0.01 0.02 0.03 0.04 0.05 0.06 0.05 0.04 0.03 0.03 0.03 0.02 0.02 0.02 0.03 0.04 0.04
0.00 0.00 0.00 0.00 0.00 0.00 0.00 0.00 0.00 0.01 0.00 0.00 0.00 0.00 0.00 0.00 0.00 0.01 0.02 0.01 0.00 0.00 0.00 0.00 0.00 0.00 0.00 0.01 0.01 0.02 0.03 0.04 0.05 0.05 0.04 0.04 0.04 0.04 0.03 0.02 0.02 0.03 0.03 0.04
0.00 0.00 0.00 0.00 0.00 0.00 0.00 0.00 0.00 0.00 0.01 0.00 0.00 0.00 0.00 0.00 0.00 0.00 0.00 0.00 0.00 0.00 0.00 0.00 0.00 0.00 0.00 0.01 0.01 0.01 0.02 0.03 0.03 0.03 0.04 0.04 0.04 0.04 0.04 0.04 0.03 0.03 0.03 0.03
0.01 0.01 0.01 0.01 0.01 0.00 0.00 0.00 0.00 0.00 0.01 0.00 0.00 0.00 0.00 0.00 0.00 0.00 0.00 0.00 0.00 0.00 0.00 0.00 0.00 0.00 0.01 0.00 0.00 0.00 0.01 0.02 0.02 0.03 0.03 0.03 0.03 0.04 0.04 0.04 0.03 0.03 0.03 0.03
0.01 0.02 0.02 0.02 0.02 0.01 0.00 0.00 0.00 0.00 0.00 0.00 0.00 0.00 0.00 0.00 0.00 0.00 0.00 0.00 0.00 0.00 0.00 0.00 0.00 0.00 0.00 0.00 0.00 0.00 0.01 0.01 0.02 0.02 0.02 0.02 0.03 0.03 0.04 0.04 0.04 0.03 0.03 0.03
0.00 0.01 0.01 0.01 0.01 0.01 0.01 0.01 0.01 0.00 0.00 0.00 0.00 0.00 0.00 0.00 0.00 0.00 0.01 0.01 0.01 0.01 0.00 0.00 0.00 0.00 0.00 0.00 0.00 0.00 0.01 0.01 0.01 0.01 0.02 0.02 0.02 0.02 0.03 0.03 0.03 0.03 0.03 0.03
0.00 0.00 0.01 0.01 0.01 0.02 0.02 0.02 0.01 0.00 0.00 0.00 0.00 0.00 0.00 0.00 0.00 0.00 0.01 0.01 0.01 0.02 0.02 0.02 0.02 0.01 0.01 0.01 0.01 0.01 0.01 0.01 0.01 0.01 0.02 0.01 0.01 0.01 0.02 0.02 0.03 0.04 0.04 0.04
0.01 0.01 0.01 0.01 0.01 0.01 0.01 0.01 0.00 0.00 0.00 0.00 0.00 0.00 0.00 0.00 0.00 0.00 0.00 0.01 0.01 0.01 0.02 0.04 0.04 0.02 0.01 0.01 0.02 0.01 0.02 0.01 0.01 0.02 0.01 0.01 0.01 0.02 0.02 0.02 0.03 0.04 0.04 0.05
0.01 0.01 0.01 0.01 0.01 0.01 0.01 0.00 0.00 0.00 0.01 0.01 0.01 0.01 0.01 0.01 0.01 0.01 0.01 0.01 0.01 0.01 0.01 0.02 0.03 0.03 0.02 0.02 0.02 0.01 0.02 0.01 0.02 0.01 0.01 0.02 0.02 0.02 0.02 0.02 0.03 0.04 0.04 0.04
MSLP
1001.04 1001.65 1002.13 1002.49 1002.77 1002.98 1003.18 1003.37 1003.58 1003.80 1004.00 1004.18 1004.34 1004.47 1004.61 1004.77 1004.98 1005.27 1005.64 1006.09 1006.58 1007.08 1007.56 1007.99 1008.37 1008.70 1008.98 1009.25 1009.53 1009.83 1010.16 1010.52 1010.89 1011.25 1011.58 1011.89 1012.16 1012.40 1012.61 1012.82 1013.02 1013.22 1013.44 1013.67
1001.86 1002.25 1002.49 1002.65 1002.75 1002.87 1003.03 1003.25 1003.53 1003.81 1004.07 1004.26 1004.37 1004.40 1004.38 1004.37 1004.41 1004.56 1004.85 1005.26 1005.78 1006.37 1006.97 1007.53 1008.03 1008.45 1008.79 1009.09 1009.38 1009.68 1010.01 1010.38 1010.79 1011.20 1011.60 1011.96 1012.27 1012.52 1012.72 1012.88 1013.02 1013.16 1013.31 1013.49
1002.50 1002.66 1002.69 1002.65 1002.63 1002.69 1002.86 1003.16 1003.53 1003.92 1004.25 1004.45 1004.50 1004.40 1004.20 1003.96 1003.78 1003.74 1003.88 1004.22 1004.74 1005.39 1006.10 1006.81 1007.44 1007.98 1008.42 1008.78 1009.10 1009.42 1009.77 1010.16 1010.59 1011.05 1011.49 1011.90 1012.24 1012.50 1012.68 1012.81 1012.90 1012.99 1013.09 1013.24
1002.83 1002.80 1002.65 1002.48 1002.40 1002.46 1002.71 1003.14 1003.66 1004.18 1004.59 1004.81 1004.78 1004.53 1004.10 1003.60 1003.15 1002.86 1002.81 1003.03 1003.51 1004.19 1004.99 1005.82 1006.60 1007.27 1007.83 1008.28 1008.66 1009.02 1009.40 1009.82 1010.28 1010.76 1011.24 1011.68 1012.04 1012.31 1012.49 1012.59 1012.66 1012.71 1012.79 1012.91
1002.81 1002.64 1002.38 1002.16 1002.08 1002.22 1002.61 1003.20 1003.90 1004.56 1005.06 1005.29 1005.19 1004.77 1004.11 1003.32 1002.57 1002.00 1001.71 1001.77 1002.16 1002.84 1003.70 1004.64 1005.55 1006.36 1007.04 1007.60 1008.06 1008.47 1008.89 1009.34 1009.83 1010.35 1010.85 1011.31 1011.69 1011.97 1012.15 1012.25 1012.30 1012.34 1012.41 1012.54
1002.46 1002.22 1001.93 1001.73 1001.73 1002.00 1002.56 1003.34 1004.22 1005.03 1005.61 1005.85 1005.66 1005.08 1004.18 1003.11 1002.07 1001.21 1000.68 1000.54 1000.82 1001.45 1002.33 1003.33 1004.34 1005.27 1006.08 1006.74 1007.29 1007.78 1008.26 1008.75 1009.27 1009.82 1010.34 1010.83 1011.22 1011.52 1011.70 1011.81 1011.86 1011.91 1012.00 1012.14
1001.90 1001.64 1001.38 1001.26 1001.38 1001.82 1002.56 1003.53 1004.57 1005.50 1006.15 1006.38 1006.11 1005.38 1004.28 1002.97 1001.66 1000.54 999.78 999.45 999.59 1000.13 1000.98 1002.01 1003.08 1004.10 1004.99 1005.75 1006.40 1006.97 1007.50 1008.05 1008.62 1009.19 1009.75 1010.26 1010.68 1010.99 1011.19 1011.30 1011.37 1011.44 1011.55 1011.72
1001.29 1001.05 1000.87 1000.86 1001.13 1001.72 1002.62 1003.72 1004.88 1005.88 1006.56 1006.76 1006.44 1005.59 1004.34 1002.86 1001.36 1000.05 999.09 998.59 998.59 999.02 999.80 1000.80 1001.87 1002.92 1003.87 1004.69 1005.41 1006.05 1006.66 1007.26 1007.89 1008.51 1009.11 1009.65 1010.09 1010.42 1010.64 1010.77 1010.85 1010.94 1011.06 1011.26
1000.80 1000.63 1000.53 1000.64 1001.02 1001.73 1002.72 1003.89 1005.07 1006.08 1006.74 1006.92 1006.54 1005.64 1004.32 1002.75 1001.16 999.74 998.67 998.05 997.91 998.22 998.90 999.81 1000.82 1001.83 1002.78 1003.62 1004.38 1005.07 1005.74 1006.41 1007.09 1007.78 1008.42 1009.00 1009.48 1009.83 1010.06 1010.21 1010.30 1010.40 1010.54 1010.74
1000.59 1000.49 1000.49 1000.68 1001.14 1001.88 1002.86 1004.00 1005.12 1006.06 1006.65 1006.77 1006.37 1005.47 1004.17 1002.63 1001.06 999.65 998.55 997.87 997.64 997.83 998.37 999.14 1000.02 1000.93 1001.80 1002.61 1003.36 1004.08 1004.79 1005.52 1006.26 1007.00 1007.70 1008.32 1008.84 1009.22 1009.48 1009.63 1009.73 1009.83 1009.97 1010.18
1000.77 1000.73 1000.80 1001.04 1001.50 1002.19 1003.07 1004.06 1005.02 1005.79 1006.26 1006.31 1005.91 1005.07 1003.88 1002.49 1001.07 999.78 998.76 998.09 997.82 997.90 998.28 998.87 999.57 1000.30 1001.03 1001.74 1002.43 1003.12 1003.85 1004.60 1005.39 1006.18 1006.94 1007.61 1008.17 1008.58 1008.86 1009.03 1009.13 1009.23 1009.36 1009.56
1001.31 1001.35 1001.47 1001.71 1002.10 1002.65 1003.33 1004.07 1004.78 1005.33 1005.62 1005.59 1005.20 1004.47 1003.48 1002.33 1001.16 1000.10 999.25 998.68 998.40 998.40 998.62 999.01 999.48 999.99 1000.53 1001.07 1001.64 1002.26 1002.95 1003.71 1004.52 1005.35 1006.14 1006.85 1007.45 1007.90 1008.20 1008.39 1008.50 1008.60 1008.73 1008.92
1002.17 1002.28 1002.42 1002.61 1002.88 1003.23 1003.64 1004.07 1004.45 1004.73 1004.82 1004.70 1004.33 1003.75 1003.00 1002.17 1001.33 1000.58 999.98 999.56 999.33 999.28 999.36 999.53 999.76 1000.02 1000.30 1000.64 1001.05 1001.55 1002.16 1002.88 1003.67 1004.50 1005.32 1006.06 1006.68 1007.16 1007.50 1007.71 1007.85 1007.96 1008.09 1008.28
1003.20 1003.37 1003.52 1003.66 1003.77 1003.88 1003.99 1004.06 1004.10 1004.07 1003.95 1003.73 1003.40 1002.98 1002.51 1002.02 1001.55 1001.16 1000.85 1000.63 1000.49 1000.42 1000.38 1000.36 1000.34 1000.34 1000.38 1000.48 1000.69 1001.04 1001.53 1002.16 1002.90 1003.70 1004.50 1005.24 1005.88 1006.38 1006.75 1007.00 1007.17 1007.32 1007.47 1007.68
1004.27 1004.49 1004.64 1004.70 1004.67 1004.54 1004.34 1004.07 1003.77 1003.45 1003.12 1002.80 1002.51 1002.25 1002.04 1001.90 1001.81 1001.77 1001.76 1001.76 1001.74 1001.68 1001.56 1001.38 1001.16 1000.92 1000.71 1000.59 1000.59 1000.76 1001.10 1001.62 1002.26 1002.98 1003.73 1004.43 1005.06 1005.58 1005.97 1006.26 1006.48 1006.67 1006.87 1007.10
1005.22 1005.48 1005.63 1005.62 1005.46 1005.12 1004.66 1004.10 1003.50 1002.92 1002.41 1002.01 1001.75 1001.63 1001.66 1001.82 1002.06 1002.35 1002.62 1002.83 1002.94 1002.92 1002.76 1002.47 1002.08 1001.66 1001.25 1000.93 1000.74 1000.73 1000.92 1001.28 1001.79 1002.40 1003.05 1003.69 1004.27 1004.77 1005.17 1005.50 1005.77 1006.02 1006.27 1006.55
1005.94 1006.23 1006.37 1006.32 1006.05 1005.56 1004.90 1004.13 1003.31 1002.54 1001.90 1001.44 1001.20 1001.20 1001.41 1001.81 1002.32 1002.86 1003.36 1003.76 1003.98 1004.02 1003.85 1003.50 1003.01 1002.46 1001.92 1001.45 1001.11 1000.95 1000.97 1001.18 1001.53 1001.99 1002.51 1003.04 1003.54 1003.99 1004.39 1004.73 1005.04 1005.34 1005.65 1005.98
1006.37 1006.66 1006.79 1006.71 1006.38 1005.81 1005.04 1004.14 1003.20 1002.33 1001.61 1001.12 1000.91 1000.98 1001.32 1001.88 1002.56 1003.28 1003.94 1004.46 1004.79 1004.87 1004.73 1004.37 1003.85 1003.25 1002.64 1002.09 1001.65 1001.37 1001.26 1001.31 1001.49 1001.79 1002.14 1002.53 1002.92 1003.29 1003.64 1003.97 1004.29 1004.63 1004.98 1005.35
1006.50 1006.76 1006.87 1006.77 1006.43 1005.84 1005.05 1004.13 1003.16 1002.27 1001.54 1001.07 1000.89 1001.01 1001.42 1002.06 1002.82 1003.62 1004.36 1004.95 1005.33 1005.46 1005.35 1005.02 1004.53 1003.95 1003.34 1002.77 1002.29 1001.93 1001.71 1001.63 1001.66 1001.78 1001.96 1002.17 1002.41 1002.67 1002.94 1003.22 1003.53 1003.88 1004.24 1004.64
1006.40 1006.58 1006.66 1006.55 1006.22 1005.68 1004.94 1004.07 1003.17 1002.34 1001.68 1001.25 1001.11 1001.27 1001.70 1002.35 1003.12 1003.92 1004.66 1005.25 1005.64 1005.81 1005.73 1005.46 1005.03 1004.51 1003.96 1003.42 1002.95 1002.56 1002.28 1002.08 1001.97 1001.92 1001.92 1001.96 1002.04 1002.15 1002.31 1002.52 1002.78 1003.09 1003.45 1003.84
1006.12 1006.21 1006.23 1006.11 1005.82 1005.34 1004.71 1003.98 1003.22 1002.52 1001.96 1001.62 1001.54 1001.72 1002.14 1002.75 1003.46 1004.20 1004.87 1005.42 1005.78 1005.95 1005.91 1005.69 1005.34 1004.91 1004.45 1003.99 1003.56 1003.18 1002.86 1002.59 1002.36 1002.16 1002.00 1001.86 1001.77 1001.73 1001.76 1001.86 1002.04 1002.29 1002.61 1002.98
1005.77 1005.74 1005.68 1005.54 1005.29 1004.91 1004.42 1003.85 1003.27 1002.75 1002.34 1002.12 1002.10 1002.30 1002.69 1003.23 1003.85 1004.48 1005.05 1005.50 1005.81 1005.95 1005.92 1005.76 1005.49 1005.16 1004.79 1004.42 1004.06 1003.71 1003.38 1003.06 1002.74 1002.43 1002.12 1001.84 1001.59 1001.40 1001.29 1001.28 1001.36 1001.53 1001.79 1002.11
1005.41 1005.25 1005.10 1004.94 1004.73 1004.44 1004.10 1003.71 1003.33 1003.00 1002.76 1002.66 1002.72 1002.94 1003.29 1003.75 1004.26 1004.75 1005.19 1005.54 1005.76 1005.85 1005.82 1005.69 1005.49 1005.24 1004.97 1004.68 1004.39 1004.09 1003.77 1003.43 1003.06 1002.66 1002.24 1001.84 1001.46 1001.14 1000.91 1000.78 1000.76 1000.85 1001.04 1001.30
1005.10 1004.82 1004.59 1004.40 1004.21 1004.01 1003.80 1003.59 1003.39 1003.24 1003.16 1003.18 1003.31 1003.54 1003.85 1004.23 1004.62 1004.98 1005.29 1005.51 1005.64 1005.68 1005.63 1005.52 1005.36 1005.17 1004.97 1004.76 1004.53 1004.28 1003.98 1003.64 1003.24 1002.79 1002.31 1001.82 1001.36 1000.95 1000.62 1000.40 1000.29 1000.29 1000.41 1000.61
1004.87 1004.49 1004.19 1003.97 1003.80 1003.68 1003.58 1003.50 1003.46 1003.46 1003.50 1003.61 1003.79 1004.02 1004.29 1004.58 1004.86 1005.10 1005.28 1005.40 1005.44 1005.42 1005.34 1005.23 1005.09 1004.95 1004.80 1004.65 1004.47 1004.25 1003.98 1003.65 1003.26 1002.80 1002.30 1001.78 1001.27 1000.80 1000.41 1000.13 999.95 999.89 999.94 1000.09
1004.70 1004.25 1003.91 1003.68 1003.54 1003.46 1003.45 1003.47 1003.53 1003.62 1003.75 1003.91 1004.10 1004.31 1004.53 1004.73 1004.91 1005.04 1005.12 1005.14 1005.11 1005.04 1004.94 1004.82 1004.70 1004.58 1004.46 1004.34 1004.20 1004.02 1003.79 1003.49 1003.12 1002.68 1002.20 1001.69 1001.18 1000.70 1000.29 999.97 999.76 999.66 999.66 999.77
Thickness
5866 5854 5846 5858 5868 5864 5864 5859 5856 5866 5883 5872 5860 5854 5858 5863 5859 5852 5846 5842 5837 5834 5835 5833 5830 5826 5820 5814 5808 5804 5800 5797 5795 5791 5787 5784 5783 5783 5783 5781 5779 5777 5775 5774
5850 5846 5865 5877 5877 5870 5865 5857 5857 5868 5883 5873 5860 5855 5864 5866 5862 5859 5851 5846 5840 5837 5834 5832 5830 5827 5821 5815 5811 5807 5803 5800 5797 5794 5791 5789 5787 5785 5784 5783 5780 5778 5777 5775
5840 5859 5878 5870 5865 5860 5860 5857 5856 5858 5872 5876 5862 5846 5853 5861 5865 5863 5861 5855 5849 5841 5836 5833 5830 5828 5824 5819 5814 5812 5807 5803 5800 5798 5795 5792 5788 5786 5783 5781 5780 5780 5778 5777
5850 5870 5871 5864 5859 5861 5850 5871 5867 5863 5854 5851 5856 5819 5838 5848 5852 5855 5857 5856 5853 5850 5845 5838 5833 5829 5827 5824 5820 5815 5811 5807 5804 5801 5796 5791 5785 5782 5783 5783 5782 5781 5780 5778
5844 5861 5861 5855 5862 5867 5863 5877 5870 5865 5856 5849 5853 5831 5828 5847 5839 5850 5857 5859 5857 5856 5851 5844 5838 5833 5833 5830 5825 5819 5813 5809 5806 5803 5799 5794 5790 5788 5787 5786 5783 5782 5781 5780
5853 5872 5872 5867 5876 5878 5875 5869 5862 5860 5852 5829 5846 5833 5820 5840 5845 5852 5860 5862 5861 5859 5855 5850 5845 5841 5837 5834 5829 5823 5815 5811 5808 5804 5801 5797 5792 5790 5787 5784 5782 5781 5781 5780
5836 5855 5873 5879 5863 5869 5866 5842 5816 5812 5816 5822 5850 5837 5830 5854 5867 5867 5863 5864 5864 5861 5856 5850 5844 5839 5836 5833 5830 5825 5817 5811 5809 5806 5802 5799 5796 5792 5788 5786 5784 5782 5781 5779
5819 5825 5856 5868 5860 5853 5855 5844 5810 5795 5802 5822 5840 5832 5845 5870 5877 5878 5873 5869 5865 5861 5857 5852 5847 5842 5838 5835 5830 5825 5818 5813 5810 5807 5803 5801 5798 5795 5792 5789 5787 5784 5782 5782
5822 5826 5863 5872 5874 5865 5848 5845 5851 5830 5823 5815 5825 5838 5851 5871 5869 5870 5868 5864 5860 5860 5857 5853 5849 5845 5841 5836 5832 5827 5820 5814 5811 5808 5804 5801 5798 5796 5793 5791 5788 5786 5784 5783
5836 5823 5849 5867 5869 5867 5863 5858 5845 5829 5805 5797 5816 5824 5828 5844 5852 5859 5859 5857 5858 5859 5856 5853 5849 5846 5843 5839 5834 5829 5823 5817 5813 5810 5806 5803 5799 5796 5794 5791 5788 5786 5784 5783
5839 5819 5832 5848 5839 5839 5846 5845 5843 5838 5831 5806 5793 5813 5850 5849 5855 5856 5859 5860 5859 5857 5855 5852 5849 5846 5842 5838 5834 5828 5823 5818 5813 5810 5806 5804 5800 5797 5794 5790 5788 5786 5783 5781
5831 5821 5814 5833 5856 5862 5853 5846 5841 5819 5816 5820 5807 5816 5863 5861 5862 5862 5861 5860 5859 5858 5856 5852 5847 5842 5839 5834 5831 5826 5822 5817 5814 5810 5807 5803 5801 5798 5793 5790 5787 5785 5782 5780
5820 5807 5792 5803 5824 5841 5837 5844 5846 5840 5828 5816 5804 5811 5856 5859 5860 5860 5859 5858 5856 5854 5851 5848 5842 5837 5834 5832 5828 5825 5822 5818 5814 5811 5806 5802 5798 5795 5791 5789 5786 5783 5780 5778
5816 5800 5791 5788 5806 5826 5824 5832 5840 5833 5816 5812 5815 5817 5836 5845 5846 5850 5852 5853 5852 5849 5845 5842 5836 5833 5829 5828 5825 5822 5819 5817 5814 5809 5803 5799 5796 5793 5790 5787 5784 5781 5779 5776
5804 5788 5795 5806 5819 5826 5824 5825 5828 5826 5826 5817 5820 5823 5829 5840 5842 5844 5845 5847 5845 5841 5838 5834 5830 5827 5825 5822 5819 5817 5815 5813 5810 5805 5800 5796 5794 5791 5787 5784 5782 5779 5777 5775
5790 5780 5785 5790 5808 5814 5812 5819 5823 5824 5826 5823 5822 5822 5838 5840 5839 5836 5836 5837 5834 5833 5832 5830 5826 5822 5819 5816 5814 5812 5809 5808 5805 5800 5796 5794 5791 5787 5784 5781 5779 5776 5773 5771
5774 5769 5765 5771 5793 5797 5789 5807 5814 5819 5826 5822 5812 5822 5836 5829 5826 5826 5826 5827 5827 5826 5826 5824 5821 5818 5815 5813 5810 5806 5804 5802 5799 5795 5792 5789 5787 5783 5780 5779 5775 5771 5768 5766
5760 5756 5757 5761 5767 5752 5791 5822 5820 5814 5817 5823 5822 5824 5826 5824 5826 5826 5826 5821 5819 5821 5820 5818 5816 5814 5812 5809 5806 5803 5800 5795 5792 5789 5786 5785 5781 5778 5776 5773 5769 5767 5764 5761
5761 5750 5746 5748 5748 5758 5786 5806 5809 5801 5799 5814 5812 5814 5817 5819 5817 5812 5816 5816 5813 5814 5814 5814 5812 5810 5806 5803 5800 5796 5792 5789 5785 5782 5780 5779 5776 5773 5770 5766 5764 5761 5758 5756
5752 5747 5738 5739 5735 5738 5769 5797 5810 5799 5777 5798 5802 5801 5803 5803 5790 5791 5805 5808 5806 5807 5808 5807 5806 5803 5798 5795 5793 5787 5784 5781 5778 5777 5775 5774 5771 5767 5763 5760 5758 5755 5752 5750
5727 5726 5724 5725 5727 5744 5774 5789 5792 5760 5758 5782 5789 5790 5790 5783 5783 5788 5795 5797 5798 5798 5798 5797 5795 5792 5789 5788 5785 5778 5775 5772 5772 5772 5769 5767 5764 5761 5758 5755 5752 5749 5746 5744
5717 5717 5715 5718 5716 5726 5761 5768 5756 5752 5767 5772 5775 5778 5777 5777 5780 5781 5781 5782 5783 5784 5785 5785 5782 5781 5781 5779 5775 5770 5767 5767 5766 5764 5761 5758 5756 5754 5752 5747 5745 5742 5739 5737
5717 5718 5718 5717 5718 5735 5748 5747 5750 5755 5754 5758 5761 5765 5766 5765 5766 5768 5767 5768 5769 5770 5772 5773 5771 5769 5770 5770 5766 5761 5761 5760 5758 5755 5752 5750 5748 5747 5745 5740 5737 5734 5732 5730
5710 5719 5712 5708 5717 5726 5733 5736 5739 5742 5743 5748 5752 5754 5754 5753 5755 5755 5756 5756 5756 5758 5759 5759 5758 5756 5757 5759 5758 5756 5754 5752 5749 5745 5743 5742 5740 5738 5737 5734 5732 5729 5726 5724
5693 5698 5695 5694 5704 5711 5715 5720 5725 5729 5733 5736 5739 5741 5741 5741 5743 5744 5744 5745 5747 5748 5748 5747 5744 5743 5745 5748 5747 5747 5746 5743 5739 5736 5735 5734 5733 5731 5728 5727 5725 5723 5721 5720
5679 5680 5679 5680 5691 5694 5698 5707 5714 5715 5717 5721 5723 5726 5730 5731 5730 5732 5733 5734 5736 5736 5737 5736 5735 5735 5736 5737 5736 5736 5736 5734 5730 5727 5726 5726 5725 5724 5722 5719 5717 5714 5713 5710